Regional Weather Roundup
Issued by NWS Newport/Morehead, NC

Current Version | Previous Version | Graphics & Text | Print | Product List | Glossary On
Versions: 1 2 3 4 5 6 7 8 9 10 11 12 13 14 15 16 17 18 19 20 21 22 23 24 25 26 27 28 29 30 31 32 33 34 35 36 37 38 39 40 41 42 43 44 45 46 47 48 49 50
000 ASUS42 KMHX 241225 RWRMHX WEATHER ROUNDUP FOR EASTERN NORTH CAROLINA NATIONAL WEATHER SERVICE NEWPORT/MOREHEAD CITY NC 700 AM EST FRI NOV 24 2017 NOTE: "FAIR" INDICATES FEW OR NO CLOUDS BELOW 12,000 FEET WITH NO SIGNIFICANT WEATHER AND/OR OBSTRUCTIONS TO VISIBILITY NCZ015>017-031-032-045>047-102-103-241300- NORTH COAST CITY SKY/WX TMP DP RH WIND PRES REMARKS EDENTON CLEAR 32 30 92 CALM 30.09R ELIZABETH CITY CLEAR 36 32 85 N5 30.08R KITTY HAWK SUNNY 46 37 72 CALM 30.05R MANTEO CLEAR 45 38 77 NE6 30.07R $$ NCZ045>047-081-094-103-104-241300- CENTRAL COAST CITY SKY/WX TMP DP RH WIND PRES REMARKS FRISCO MOCLDY 51 44 77 NE9G17 30.03R $$ NCZ095-097-098-100-101-241300- SOUTHERN COAST CITY SKY/WX TMP DP RH WIND PRES REMARKS BEAUFORT PTCLDY 45 40 82 NE12G20 30.02R CEDAR ISLAND NOT AVBL JACKSONVILLE CLEAR 38 36 92 N8 30.03S PINEY ISLAND NOT AVBL WILMINGTON CLOUDY 41 36 82 NE10 30.02S $$ NCZ011>013-027>030-043-044-078>080-089-090>093-098-241300- COASTAL PLAIN CITY SKY/WX TMP DP RH WIND PRES REMARKS AHOSKIE CLOUDY 25 25 97 CALM 30.10R CLINTON CLEAR 34 34 99 CALM 30.07S ELIZABETHTOWN NOT AVBL GOLDSBORO CLEAR 29 27 90 CALM 30.05S GREENVILLE FOG 28 28 100 CALM 30.10R VSB 1/2 HAVELOCK NOT AVBL KENANSVILLE CLEAR 32 30 93 CALM 30.06S KINSTON CLEAR 30 30 100 N7 30.07S NEW BERN CLEAR 37 35 92 N8 30.06R RICHLANDS CLEAR 34 33 96 N8 30.05R ROCKY MOUNT CLEAR 28 28 100 CALM 30.09R FOG WASHINGTON CLEAR 31 29 93 N5 30.08R WHITEVILLE CLEAR 36 34 92 N3 30.03S $$ AMZ130-135-150-152-154-156-158-170-250-252-270-ANZ085-086-088-633-658-670-241300- MARINE OBSERVATIONS STATION/POSITION TIME TEMP WIND PRES WAVE SWELL AIR SEA DIR/SP/G HT/PER HT/PER (UTC) (F) (DEG/KT/KT) (MB) (FT/S) (FT/S) CHESAPEAKE LIGHT NOT AVBL 64 E VA BEACH 1150 50 58 20/ 12/ 16 1017.9 5/ 9 5/ 9 DUCK 1200 49 56 40/ 12/ 15 1017.6 2 E DUCK 1200 59 N/A 4/10 2/11 OREGON INLET 1200 49 56 30/ 10/ 15 1017.5 13E OREGON INLT 1148 62 N/A 6/11 7/11 HATTERAS CG 1200 51 58 20/ 15/ 18 1016.5 DIAMOND BUOY 1210 59 72 20/ 19/ 23 1016.2 CAPE LOOKOUT 1200 20/ 17/ 19 1016.4 BEAUFORT LAB 1200 45 58 20/ 11/ 13 1016.5 30 SE NEW RVR IN 1208 54 67 50/ 17/ 21 1015.4 30 SE NEW RVR IN 1200 67 N/A 7/10 2/11 27 SE WRIGHTSVLE 1208 56 72 50/ 21/ 29 1015.3 5 SE WRIGHTSVLE 1208 50 63 30/ 16/ 21 1015.6 225 S CAPE HAT 1150 71 76 100/ 14/ 16 1010.3 9/ 8 8/ 8 41 SE CHARLESTON 1200 62 74 30/ 23/ 31 1012.9 $$

USA.gov is the U.S. government's official web portal to all federal, state and local government web resources and services.